This demonstration page uses our WeatherBlox Daily Observations layout. Learn more.

Left ArrowRight Arrow

38.83388, -104.82136

Hourly Observations for August 7, 2022

Temp ( °F °C ) Dew Point ( °F °C ) Humidity (%) Winds ( mph kmh ) Pressure ( in mb ) Visibility ( mi km ) Precip ( " mm )
12:54 am 00:54 Mostly Cloudy 69 20.6 59 15 70 70 N 5 7 29.94 1014 10 16 0.00 0.00
1:54 am 01:54 Mostly Cloudy 69 20.6 60 15.6 73 73 WNW 3 6 29.92 1013 10 16 0.00 0.00
2:54 am 02:54 Mostly Cloudy 71 21.7 58 14.4 63 63 Calm 29.90 1012 10 16 0.00 0.00
3:54 am 03:54 Mostly Cloudy 69 20.6 58 14.4 68 68 Calm 29.90 1013 10 16 0.00 0.00
4:54 am 04:54 Mostly Cloudy 68 20 58 14.4 70 70 N 3 6 29.91 1013 10 16 0.00 0.00
5:54 am 05:54 Mostly Cloudy 65 18.3 57 13.9 76 76 NNE 7 11 29.93 1014 10 16 0.00 0.00
6:54 am 06:54 Mostly Cloudy 67 19.4 58 14.4 73 73 NNE 7 11 29.97 1015 10 16 0.00 0.00
7:54 am 07:54 Mostly Cloudy 75 23.9 56 13.3 52 52 N 14 22 29.95 1014 10 16 0.00 0.00
8:25 am 08:25 Mostly Cloudy 75 23.9 53 11.7 46 46 NNW 21 33 29.76 1008 10 16 0.00 0.00
8:54 am 08:54 Mostly Cloudy 75 23.9 53 11.7 46 46 NNW 20 31 29.97 1015 10 16 0.00 0.00
9:54 am 09:54 Mostly Cloudy 74 23.3 55 12.8 52 52 NNW 20 31 29.99 1016 10 16 0.00 0.00
10:54 am 10:54 Mostly Cloudy 77 25 57 13.9 50 50 NNW 15 24 30.00 1016 10 16 0.00 0.00
11:54 am 11:54 Mostly Cloudy 77 25 56 13.3 48 48 NNW 13 20 30.01 1016 10 16 0.00 0.00
12:54 pm 12:54 Mostly Cloudy 75 23.9 55 12.8 50 50 N 17 28 30.02 1017 10 16 0.00 0.00
1:54 pm 13:54 Mostly Cloudy 76 24.4 57 13.9 52 52 N 7 11 30.01 1016 10 16 0.00 0.00
2:54 pm 14:54 Mostly Cloudy 84 28.9 53 11.7 34 34 VRB 6 9 29.95 1014 10 16 0.00 0.00
3:54 pm 15:54 Mostly Cloudy 82 27.8 59 15 46 46 ENE 17 28 29.96 1015 10 16 0.00 0.00
4:54 pm 16:54 Mostly Cloudy 82 27.8 54 12.2 38 38 ENE 17 28 29.96 1015 10 16 0.00 0.00
5:54 pm 17:54 Mostly Cloudy 80 26.7 53 11.7 39 39 E 10 17 30.01 1016 10 16 0.00 0.00
6:54 pm 18:54 Mostly Cloudy 77 25 56 13.3 48 48 ESE 10 17 30.03 1017 10 16 0.00 0.00
7:54 pm 19:54 Cloudy with Light Rain 72 22.2 58 14.4 61 61 SSE 13 20 30.06 1018 10 16 0.00 0.00
8:54 pm 20:54 Cloudy with Light Rain 69 20.6 61 16.1 76 76 SE 8 13 30.12 1020 10 16 0.00 0.00
9:21 pm 21:21 Cloudy with Thunderstorms 69 20.6 61 16.1 76 76 Calm 29.99 1015 10 16 0.01 0.25
9:35 pm 21:35 Cloudy with Nearby Thunderstorms 67 19.4 62 16.7 84 84 W 6 9 30.01 1016 10 16 0.01 0.25
9:54 pm 21:54 Cloudy with Nearby Thunderstorms 67 19.4 62 16.7 84 84 NW 9 15 30.14 1021 10 16 0.04 1.02
10:15 pm 22:15 Cloudy with Light Rain 65 18.3 61 16.1 87 87 NNW 9 15 30.05 1017 10 16 0.00 0.00
10:19 pm 22:19 Cloudy with Nearby Thunderstorms 65 18.3 61 16.1 87 87 NNW 10 17 30.05 1017 10 16 0.01 0.25
10:54 pm 22:54 Cloudy with Thunderstorms 64 17.8 60 15.6 87 87 NNW 13 20 30.14 1021 10 16 0.02 0.51
11:17 pm 23:17 Cloudy with Nearby Thunderstorms 64 17.8 58 14.4 81 81 NNW 9 15 30.05 1018 10 16 0.01 0.25
11:54 pm 23:54 Cloudy with Thunderstorms 64 17.8 59 15 84 84 Calm 30.16 1021 10 16 0.04 1.02

Powered by AerisWeather